Terug naar catalogus

FENGYUN 1C DEB

ActiefPO
NORAD 30265·DEBRIS·🇨🇳 China

Gelanceerd May 10, 1999 vanaf Taiyuan Satellite Launch Center

Loading…

Volgende Passages (komende 24 uur)

TLE

VersSource: Space-Track

Epoch: Sep 12, 2026, 08:13 UTC

1 30265U 99025YA  26255.34287568  .00006087  00000-0  11584-2 0  9996
2 30265  98.6770  22.6746 0025676 245.9447 139.5397 14.64278517 24001

Volg FENGYUN 1C DEB in realtime met AllMySat

Download on the App Store